Time,TemperatureF,DewpointF,PressureIn,WindDirection,WindDirectionDegrees,WindSpeedMPH,WindSpeedGustMPH,Humidity,HourlyPrecipIn,Conditions,Clouds,dailyrainin,SoftwareType,DateUTC
2013-01-08 13:53:00,84.0,73.0,30.07,ENE,65,2.0,11.0,70,0.00,,,0.00,,2013-01-08 18:53:00,
2013-01-08 14:03:00,84.0,73.0,30.06,ENE,59,2.0,8.0,69,0.00,,,0.00,,2013-01-08 19:03:00,
2013-01-08 14:12:00,84.0,73.0,30.06,ENE,59,2.0,8.0,69,0.00,,,0.00,,2013-01-08 19:12:00,
2013-01-08 14:23:00,84.0,73.0,30.06,ENE,59,2.0,8.0,69,0.00,,,0.00,,2013-01-08 19:23:00,
2013-01-08 14:33:00,84.0,73.0,30.06,ENE,59,2.0,8.0,69,0.00,,,0.00,,2013-01-08 19:33:00,
2013-01-08 14:42:00,84.0,73.0,30.06,ENE,59,2.0,8.0,69,0.00,,,0.00,,2013-01-08 19:42:00,
2013-01-08 16:23:00,81.0,73.0,30.06,SE,138,2.0,6.0,76,0.00,,,0.00,,2013-01-08 21:23:00,
2013-01-08 16:33:00,82.0,74.0,30.06,NE,52,1.0,4.0,76,0.00,,,0.00,,2013-01-08 21:33:00,
2013-01-08 16:43:00,82.0,74.0,30.06,NE,52,1.0,4.0,76,0.00,,,0.00,,2013-01-08 21:43:00,
2013-01-08 16:53:00,81.0,72.0,30.05,ESE,114,2.0,6.0,75,0.00,,,0.00,,2013-01-08 21:53:00,
2013-01-08 17:03:00,81.0,73.0,30.05,NE,41,1.0,5.0,76,0.00,,,0.00,,2013-01-08 22:03:00,
2013-01-08 17:12:00,81.0,73.0,30.05,NE,41,1.0,5.0,76,0.00,,,0.00,,2013-01-08 22:12:00,
2013-01-08 17:23:00,81.0,73.0,30.05,NE,41,1.0,5.0,76,0.00,,,0.00,,2013-01-08 22:23:00,
2013-01-08 17:33:00,81.0,73.0,30.05,NE,41,1.0,5.0,76,0.00,,,0.00,,2013-01-08 22:33:00,
2013-01-08 19:03:00,77.0,72.0,30.07,ESE,121,1.0,5.0,84,0.00,,,0.00,,2013-01-09 00:03:00,
2013-01-08 19:13:00,77.0,72.0,30.07,ESE,121,1.0,5.0,84,0.00,,,0.00,,2013-01-09 00:13:00,
2013-01-08 19:22:00,77.0,72.0,30.08,NW,326,1.0,5.0,85,0.00,,,0.00,,2013-01-09 00:22:00,
2013-01-08 19:33:00,77.0,72.0,30.07,SSW,201,1.0,7.0,85,0.00,,,0.00,,2013-01-09 00:33:00,
2013-01-08 19:43:00,77.0,72.0,30.07,SSW,201,1.0,7.0,85,0.00,,,0.00,,2013-01-09 00:43:00,
2013-01-08 19:53:00,77.0,72.0,30.07,SSW,201,1.0,7.0,85,0.00,,,0.00,,2013-01-09 00:53:00,
2013-01-08 20:02:00,77.0,72.0,30.08,South,173,1.0,6.0,86,0.00,,,0.00,,2013-01-09 01:02:00,
2013-01-08 20:12:00,77.0,72.0,30.08,South,173,1.0,6.0,86,0.00,,,0.00,,2013-01-09 01:12:00,
2013-01-08 20:22:00,76.0,72.0,30.08,North,355,2.0,5.0,86,0.00,,,0.00,,2013-01-09 01:22:00,
2013-01-08 20:33:00,76.0,72.0,30.08,North,355,2.0,5.0,86,0.00,,,0.00,,2013-01-09 01:33:00,
2013-01-08 20:42:00,76.0,72.0,30.08,North,355,2.0,5.0,86,0.00,,,0.00,,2013-01-09 01:42:00,
2013-01-08 20:52:00,77.0,72.0,30.09,SSW,205,1.0,5.0,86,0.00,,,0.00,,2013-01-09 01:52:00,
2013-01-08 21:02:00,77.0,72.0,30.09,SSW,205,1.0,5.0,86,0.00,,,0.00,,2013-01-09 02:02:00,
2013-01-08 21:12:00,77.0,72.0,30.09,SSW,205,1.0,5.0,86,0.00,,,0.00,,2013-01-09 02:12:00,
2013-01-08 21:22:00,77.0,72.0,30.09,SSW,205,1.0,5.0,86,0.00,,,0.00,,2013-01-09 02:22:00,